When you browse on this site, cookies collect data to enhance your experience and personalize the content and advertising you see.
Visit our Privacy Policy to learn more. By continuing to use the site, you agree to this use of cookies and data.
  • In Czech Republic
  • List of Countries
  • For 7 days
  • Water Temperature
  • Satellite Maps
  • Weather Map
  • Weather Widgets
  • user-avatar
    Login

    Hourly Weather Edmundston

    Today, 21 June, Friday

    Time Temperature Precipitation Wind Pressure Humidity
    00:00 +10°C° 0 mm 5 mps 698 mmHg 91%
    01:00 +10°C° 0 mm 5 mps 698 mmHg 91%
    02:00 +10°C° 0 mm 5 mps 698 mmHg 92%
    03:00 +10°C° 0 mm 5 mps 699 mmHg 93%
    04:00 +9°C° 0 mm 5 mps 699 mmHg 95%
    05:00 +11°C° 0 mm 4 mps 699 mmHg 93%
    06:00 +12°C° 0 mm 4 mps 700 mmHg 91%
    07:00 +13°C° 0 mm 3 mps 700 mmHg 90%
    08:00 +14°C° 0.1 mm 3 mps 700 mmHg 87%
    09:00 +16°C° 0.1 mm 3 mps 700 mmHg 85%
    10:00 +17°C° 0.1 mm 3 mps 700 mmHg 82%
    11:00 +18°C° 1 mm 3 mps 700 mmHg 78%
    12:00 +19°C° 1 mm 4 mps 701 mmHg 73%
    13:00 +19°C° 1 mm 4 mps 701 mmHg 69%
    14:00 +19°C° 0.9 mm 4 mps 701 mmHg 71%
    15:00 +19°C° 0.9 mm 5 mps 701 mmHg 73%
    16:00 +19°C° 0.9 mm 5 mps 701 mmHg 75%
    17:00 +17°C° 0.5 mm 5 mps 701 mmHg 77%
    18:00 +17°C° 0.5 mm 4 mps 701 mmHg 80%
    19:00 +14°C° 0.5 mm 4 mps 701 mmHg 83%
    20:00 +13°C° 0.1 mm 4 mps 700 mmHg 86%
    21:00 +12°C° 0.1 mm 3 mps 700 mmHg 89%
    22:00 +12°C° 0.1 mm 3 mps 700 mmHg 92%
    23:00 +11°C° 0 mm 3 mps 700 mmHg 93%

    Tomorrow, 22 June, Saturday

    Time Temperature Precipitation Wind Pressure Humidity
    00:00 +10°C° 0 mm 3 mps 700 mmHg 94%
    01:00 +10°C° 0 mm 3 mps 700 mmHg 95%
    02:00 +10°C° 0 mm 3 mps 700 mmHg 96%
    03:00 +9°C° 0 mm 3 mps 700 mmHg 96%
    04:00 +8°C° 0 mm 4 mps 700 mmHg 96%
    05:00 +11°C° 0 mm 4 mps 699 mmHg 95%
    06:00 +12°C° 0 mm 4 mps 699 mmHg 93%
    07:00 +13°C° 0 mm 4 mps 699 mmHg 92%
    08:00 +14°C° 0.1 mm 4 mps 699 mmHg 88%
    09:00 +15°C° 0.1 mm 4 mps 698 mmHg 84%
    10:00 +18°C° 0.1 mm 4 mps 698 mmHg 80%
    11:00 +18°C° 0.5 mm 4 mps 698 mmHg 77%
    12:00 +19°C° 0.5 mm 4 mps 698 mmHg 74%
    13:00 +20°C° 0.5 mm 3 mps 697 mmHg 70%
    14:00 +20°C° 0.4 mm 3 mps 697 mmHg 69%
    15:00 +20°C° 0.4 mm 3 mps 696 mmHg 68%
    16:00 +21°C° 0.4 mm 3 mps 696 mmHg 67%
    17:00 +20°C° 0.2 mm 3 mps 696 mmHg 71%
    18:00 +19°C° 0.2 mm 2 mps 695 mmHg 74%
    19:00 +18°C° 0.2 mm 2 mps 695 mmHg 78%
    20:00 +16°C° 0.2 mm 2 mps 695 mmHg 80%
    21:00 +15°C° 0.2 mm 2 mps 695 mmHg 82%
    22:00 +14°C° 0.2 mm 2 mps 695 mmHg 84%
    23:00 +13°C° 0.4 mm 2 mps 695 mmHg 86%

    Day after tomorrow, 23 June, Sunday

    Time Temperature Precipitation Wind Pressure Humidity
    00:00 +13°C° 0.4 mm 2 mps 694 mmHg 88%
    01:00 +12°C° 0.4 mm 2 mps 694 mmHg 90%
    02:00 +11°C° 0 mm 3 mps 694 mmHg 91%
    03:00 +11°C° 0 mm 3 mps 694 mmHg 91%
    04:00 +11°C° 0 mm 3 mps 694 mmHg 91%
    05:00 +12°C° 0 mm 3 mps 694 mmHg 88%
    06:00 +13°C° 0 mm 3 mps 694 mmHg 86%
    07:00 +16°C° 0 mm 3 mps 694 mmHg 83%
    08:00 +17°C° 0.5 mm 3 mps 694 mmHg 79%
    09:00 +18°C° 0.5 mm 3 mps 694 mmHg 74%
    10:00 +20°C° 0.5 mm 3 mps 694 mmHg 69%
    11:00 +20°C° 0.5 mm 3 mps 694 mmHg 68%
    12:00 +20°C° 0.5 mm 3 mps 694 mmHg 66%
    13:00 +21°C° 0.5 mm 3 mps 694 mmHg 65%
    14:00 +20°C° 0.5 mm 3 mps 694 mmHg 65%
    15:00 +20°C° 0.5 mm 3 mps 694 mmHg 66%
    16:00 +20°C° 0.5 mm 3 mps 695 mmHg 66%
    17:00 +19°C° 0.4 mm 3 mps 694 mmHg 72%
    18:00 +17°C° 0.4 mm 4 mps 694 mmHg 77%
    19:00 +15°C° 0.4 mm 5 mps 694 mmHg 82%
    20:00 +14°C° 0 mm 4 mps 694 mmHg 83%
    21:00 +13°C° 0 mm 4 mps 694 mmHg 84%
    22:00 +12°C° 0 mm 4 mps 694 mmHg 84%
    23:00 +12°C° 0.1 mm 4 mps 694 mmHg 85%

    24 June, Monday

    Time Temperature Precipitation Wind Pressure Humidity
    00:00 +12°C° 0.1 mm 4 mps 694 mmHg 86%
    01:00 +11°C° 0.1 mm 3 mps 694 mmHg 87%
    02:00 +11°C° 0 mm 3 mps 694 mmHg 88%
    03:00 +10°C° 0 mm 4 mps 694 mmHg 88%
    04:00 +10°C° 0 mm 4 mps 694 mmHg 89%
    05:00 +11°C° 0 mm 4 mps 694 mmHg 87%
    06:00 +12°C° 0 mm 4 mps 694 mmHg 86%
    07:00 +13°C° 0 mm 5 mps 694 mmHg 84%
    08:00 +15°C° 0 mm 4 mps 694 mmHg 81%
    09:00 +17°C° 0 mm 4 mps 694 mmHg 78%
    10:00 +18°C° 0 mm 4 mps 694 mmHg 76%
    11:00 +18°C° 0.5 mm 4 mps 694 mmHg 75%
    12:00 +19°C° 0.5 mm 4 mps 694 mmHg 75%
    13:00 +19°C° 0.5 mm 4 mps 694 mmHg 75%
    14:00 +19°C° 0.6 mm 4 mps 694 mmHg 76%
    15:00 +19°C° 0.6 mm 4 mps 694 mmHg 77%
    16:00 +19°C° 0.6 mm 3 mps 694 mmHg 78%
    17:00 +18°C° 0.6 mm 3 mps 694 mmHg 80%
    18:00 +17°C° 0.6 mm 3 mps 694 mmHg 83%
    19:00 +16°C° 0.6 mm 2 mps 694 mmHg 86%
    20:00 +15°C° 0 mm 2 mps 694 mmHg 87%
    21:00 +14°C° 0 mm 2 mps 694 mmHg 87%
    22:00 +13°C° 0 mm 1 mps 694 mmHg 88%
    23:00 +13°C° 0 mm 1 mps 694 mmHg 88%

    25 June, Tuesday

    Time Temperature Precipitation Wind Pressure Humidity
    00:00 +12°C° 0 mm 1 mps 695 mmHg 88%
    01:00 +12°C° 0 mm 1 mps 695 mmHg 88%
    02:00 +12°C° 0 mm 1 mps 695 mmHg 89%
    03:00 +12°C° 0 mm 1 mps 695 mmHg 89%
    04:00 +12°C° 0 mm 1 mps 696 mmHg 90%
    05:00 +13°C° 0 mm 1 mps 696 mmHg 87%
    06:00 +14°C° 0 mm 2 mps 696 mmHg 85%
    07:00 +16°C° 0 mm 2 mps 697 mmHg 83%
    08:00 +17°C° 0.2 mm 2 mps 697 mmHg 77%
    09:00 +18°C° 0.2 mm 3 mps 697 mmHg 71%
    10:00 +19°C° 0.2 mm 3 mps 697 mmHg 65%
    11:00 +19°C° 0 mm 3 mps 697 mmHg 63%
    12:00 +20°C° 0 mm 2 mps 697 mmHg 61%
    13:00 +20°C° 0 mm 2 mps 697 mmHg 59%
    14:00 +20°C° 0.3 mm 2 mps 697 mmHg 60%
    15:00 +21°C° 0.3 mm 1 mps 697 mmHg 61%
    16:00 +21°C° 0.3 mm 1 mps 697 mmHg 62%
    17:00 +20°C° 0.5 mm 1 mps 698 mmHg 68%
    18:00 +19°C° 0.5 mm 1 mps 698 mmHg 73%
    19:00 +18°C° 0.5 mm 1 mps 698 mmHg 78%
    20:00 +16°C° 0 mm 1 mps 698 mmHg 80%
    21:00 +15°C° 0 mm 1 mps 698 mmHg 81%
    22:00 +14°C° 0 mm 1 mps 698 mmHg 83%
    23:00 +13°C° 0 mm 1 mps 698 mmHg 85%

    26 June, Wednesday

    Time Temperature Precipitation Wind Pressure Humidity
    00:00 +13°C° 0 mm 1 mps 698 mmHg 86%
    01:00 +12°C° 0 mm 1 mps 699 mmHg 88%
    02:00 +12°C° 0 mm 1 mps 699 mmHg 88%
    03:00 +12°C° 0 mm 1 mps 699 mmHg 88%
    04:00 +12°C° 0 mm 1 mps 699 mmHg 88%
    05:00 +13°C° 0 mm 1 mps 700 mmHg 85%
    06:00 +15°C° 0 mm 2 mps 700 mmHg 82%
    07:00 +17°C° 0 mm 2 mps 701 mmHg 79%
    08:00 +18°C° 0 mm 3 mps 701 mmHg 75%
    09:00 +19°C° 0 mm 4 mps 701 mmHg 71%
    10:00 +20°C° 0 mm 4 mps 701 mmHg 68%
    11:00 +20°C° 0.1 mm 4 mps 701 mmHg 67%
    12:00 +21°C° 0.1 mm 5 mps 701 mmHg 67%
    13:00 +21°C° 0.1 mm 5 mps 701 mmHg 67%
    14:00 +21°C° 0.1 mm 5 mps 701 mmHg 69%
    15:00 +21°C° 0.1 mm 5 mps 701 mmHg 70%
    16:00 +21°C° 0.1 mm 5 mps 701 mmHg 72%
    17:00 +20°C° 0.4 mm 5 mps 701 mmHg 76%
    18:00 +19°C° 0.4 mm 5 mps 701 mmHg 79%
    19:00 +17°C° 0.4 mm 5 mps 701 mmHg 83%
    20:00 +16°C° 0 mm 5 mps 701 mmHg 85%
    21:00 +15°C° 0 mm 5 mps 701 mmHg 86%
    22:00 +14°C° 0 mm 5 mps 701 mmHg 88%
    23:00 +14°C° 0.2 mm 4 mps 701 mmHg 89%
    Show more